Wind_Speed
4 6 8 10 11 12 11 8 6 5 6 7 8 8 8 9 9 9 9 10 10 11 12 14 15 18 20 22 23 24 25 25 25 25 24 24 23 22 23 24 25 25 25 24 23 23 24 23 23 23 22 21 22 22 23 24 24 25 25 28 30 29 28 28 29 28 27 26 25 23 23 23 23 23 25 30 33 34 34 34 34 32 28 25 23
3 6 8 9 10 11 10 7 5 4 5 7 8 8 8 9 9 9 10 11 11 12 12 13 15 17 19 21 22 23 24 24 25 25 25 24 23 23 23 24 26 27 27 25 23 23 25 23 23 22 22 22 23 23 22 22 24 25 24 25 26 27 26 26 26 26 27 27 27 25 24 24 24 23 25 29 34 35 35 36 35 33 31 29 26
5 6 8 10 12 12 12 10 7 5 6 8 9 9 9 9 9 9 10 11 12 12 13 13 14 15 17 19 20 21 22 23 24 25 25 25 24 23 23 24 24 25 25 24 23 23 25 24 23 22 20 21 21 21 22 22 22 24 24 24 24 25 25 25 26 26 26 26 26 27 27 28 27 25 25 27 32 36 38 37 36 35 33 31 29
11 12 14 15 16 16 16 16 14 13 13 13 13 13 13 13 12 12 12 12 12 12 13 13 13 14 15 17 19 20 22 22 23 23 24 24 24 23 23 22 22 22 22 22 22 23 24 23 22 21 20 20 20 19 20 21 22 25 27 26 25 25 25 25 26 26 25 25 26 27 28 29 29 27 25 26 30 36 39 39 38 37 35 34 32
15 16 17 18 18 18 18 18 17 17 16 16 16 17 17 17 16 16 15 15 15 14 14 13 14 15 16 18 20 21 22 24 24 23 23 23 23 23 22 21 21 20 20 20 21 21 23 23 22 20 18 19 20 20 20 21 22 23 26 27 26 26 26 26 26 26 26 26 26 27 28 29 29 28 27 27 29 35 39 40 40 39 37 36 34
16 17 17 17 18 17 17 16 16 16 16 16 17 17 18 17 17 17 18 18 18 18 17 17 17 17 18 19 20 21 22 23 24 24 24 23 23 23 22 21 21 20 19 20 20 20 21 23 23 20 17 16 16 18 19 20 21 21 21 22 23 25 27 26 26 26 27 27 27 27 28 30 30 29 28 28 30 33 38 42 42 41 40 38 36
15 16 16 16 16 16 16 15 14 15 16 17 18 18 18 17 17 18 18 18 19 19 19 19 19 19 19 20 20 22 22 23 24 25 25 26 25 25 24 23 22 21 20 20 19 19 19 21 22 20 17 15 14 14 15 16 18 18 18 18 19 21 24 25 26 27 28 29 29 29 30 30 31 30 29 29 30 32 36 42 44 42 41 40 38
13 14 15 15 15 15 14 13 13 14 16 18 19 20 20 19 19 19 20 20 21 21 21 20 20 20 20 20 21 22 23 24 26 27 28 27 27 26 26 26 24 23 22 21 20 19 18 20 20 18 15 15 15 15 16 16 17 17 18 19 20 20 22 24 27 29 29 29 30 30 30 31 31 30 29 30 33 34 37 42 44 44 44 43 40
12 13 13 13 13 12 11 11 12 13 16 19 21 22 22 22 22 22 23 23 23 23 22 22 22 22 22 22 22 23 24 25 28 29 29 28 27 27 27 27 27 25 23 22 21 19 19 19 20 20 17 16 17 18 18 18 18 19 18 19 21 22 23 25 27 29 30 30 31 32 32 33 33 32 32 33 35 37 37 40 43 45 45 44 41
12 13 14 13 12 11 11 12 13 15 19 21 22 23 24 24 24 25 25 25 25 25 25 25 25 25 25 25 24 24 25 26 27 28 28 28 27 26 26 26 27 27 25 24 23 21 20 19 20 21 21 21 21 20 19 18 18 20 20 20 21 22 23 25 26 27 29 31 32 33 34 35 35 34 34 34 34 36 37 39 42 43 43 43 42
12 15 17 18 17 15 15 16 17 19 21 22 22 23 23 24 25 25 25 26 26 26 26 26 27 27 28 27 26 25 25 26 27 27 28 28 27 26 25 25 25 26 26 25 24 24 22 21 21 21 22 23 23 22 21 20 18 19 21 21 22 22 23 25 26 26 27 29 31 33 34 34 33 33 33 33 33 35 36 38 41 44 43 43 43
14 18 21 22 23 22 22 22 23 23 23 23 22 22 23 24 24 24 24 25 25 25 26 27 27 27 27 27 27 26 25 26 27 27 28 29 29 27 26 25 25 25 25 25 24 25 24 24 22 22 22 23 24 23 23 23 21 20 21 22 22 22 23 25 26 26 26 27 29 32 33 32 31 32 32 31 32 34 35 37 40 42 42 42 43
19 21 23 24 25 26 26 26 26 26 25 25 24 24 24 24 24 24 24 24 25 25 26 26 26 26 26 26 26 25 25 25 26 27 28 29 30 29 28 26 25 24 24 24 24 24 25 25 24 23 23 23 24 25 24 25 24 23 22 22 22 23 23 25 26 26 26 26 27 29 30 29 30 31 31 31 32 33 36 38 39 40 42 43 44
23 24 25 25 26 26 26 27 28 27 27 27 26 26 26 25 24 24 25 26 27 27 27 26 26 25 25 25 25 25 25 25 26 27 27 29 30 31 31 29 27 25 25 24 24 24 24 25 25 25 25 24 24 25 25 25 26 25 24 23 22 22 22 23 24 25 26 26 26 27 27 28 29 28 29 32 34 35 36 39 40 41 42 42 44
24 24 25 25 26 26 26 27 28 28 28 28 29 30 29 27 26 26 27 28 29 28 28 27 26 25 24 23 23 24 25 25 26 27 27 28 30 31 32 32 31 29 27 25 25 24 24 24 24 25 26 26 25 25 25 25 25 26 25 24 22 22 21 21 21 22 24 26 28 28 28 29 28 26 27 32 35 36 37 39 39 40 41 41 43
24 24 24 25 25 25 26 26 27 28 28 29 31 31 30 29 28 27 28 28 29 29 29 28 27 26 24 23 22 23 24 24 26 27 27 28 29 31 32 33 34 33 32 30 28 26 25 25 25 25 25 26 25 25 25 25 26 26 26 25 24 22 22 22 21 21 22 25 28 30 30 29 27 26 27 30 32 35 38 40 39 40 42 42 42
23 23 23 23 23 24 24 25 26 27 28 29 30 31 30 29 28 28 28 29 30 31 30 29 28 27 26 24 22 22 23 23 25 27 28 28 30 32 34 35 36 37 36 34 32 30 28 27 27 26 26 26 26 26 26 26 25 26 27 27 26 24 23 23 22 21 21 23 26 28 28 27 26 26 27 28 29 33 37 41 40 39 41 42 42
22 22 21 21 21 22 22 23 25 26 27 28 29 30 30 29 28 28 29 30 31 31 31 30 29 29 27 25 22 21 21 22 23 25 27 28 30 33 35 37 38 39 39 37 36 34 32 30 29 28 27 28 28 28 28 27 26 26 26 27 27 26 23 22 23 22 19 19 22 24 25 25 25 26 27 28 29 31 35 38 39 40 42 42 43
20 20 20 19 19 19 20 21 23 24 25 27 27 28 28 28 28 28 29 30 32 32 31 30 30 30 29 26 23 21 20 20 21 23 26 27 30 32 35 38 39 41 41 40 39 37 35 33 31 30 29 30 30 30 30 30 28 27 26 26 27 26 23 22 24 24 21 19 19 20 22 23 24 26 27 28 30 32 33 34 37 41 43 43 45
17 18 18 17 17 17 18 19 21 22 23 25 26 27 27 27 26 27 28 30 31 32 32 32 32 32 32 29 25 21 20 19 19 21 24 26 29 31 34 38 40 41 42 41 40 40 38 36 34 32 30 30 30 31 31 31 30 29 27 26 26 25 23 22 24 24 22 19 18 19 21 21 23 25 26 26 28 31 32 33 35 39 41 43 46
14 15 15 16 15 15 16 17 19 20 21 22 24 25 26 26 26 26 27 29 31 32 33 33 33 34 34 32 27 21 19 19 19 21 23 25 28 31 34 37 39 41 42 40 39 39 39 37 35 33 31 28 28 30 30 30 30 29 27 26 25 24 23 22 22 22 21 20 18 19 19 20 21 23 24 25 24 26 29 32 34 37 40 42 44
12 11 12 13 13 14 14 15 16 18 19 20 22 24 25 25 25 25 27 28 30 32 33 34 34 35 35 35 31 24 20 19 20 22 24 26 27 30 33 36 39 41 41 39 37 37 37 36 34 32 30 26 25 26 27 28 28 28 27 26 24 21 20 20 19 18 18 18 18 19 19 19 19 21 23 23 23 24 27 29 30 32 37 41 41
10 9 9 10 11 12 12 13 14 16 17 19 20 22 24 24 24 25 26 28 30 32 33 34 35 35 36 36 34 28 23 21 22 23 25 27 28 28 32 36 38 40 40 37 35 35 34 33 32 30 28 24 22 22 24 26 27 26 25 25 24 19 16 15 14 13 14 15 16 18 19 19 19 21 22 23 23 24 25 26 27 29 33 37 37
10 9 8 8 9 10 10 11 12 14 15 17 19 21 22 23 23 24 26 28 30 32 33 34 34 35 35 36 36 33 28 25 24 24 26 28 27 28 31 35 37 38 38 35 33 32 31 30 29 28 26 23 20 19 21 23 25 25 23 22 21 17 12 8 7 8 11 13 14 15 17 18 20 21 22 23 24 24 24 25 27 29 33 36 37
8 8 8 7 7 7 8 9 11 12 14 16 18 19 21 21 22 23 25 27 29 31 32 33 33 34 35 35 36 35 32 28 26 26 27 28 27 28 31 33 35 37 36 34 32 30 29 28 27 27 26 26 23 20 20 21 23 24 23 22 20 16 12 9 5 1 4 8 12 12 12 14 17 20 22 23 24 23 23 25 26 29 33 36 37
6 7 7 6 6 5 5 8 10 11 13 14 16 18 19 20 21 23 24 26 28 30 31 32 32 33 34 34 34 35 35 31 28 27 28 28 28 29 30 32 35 36 35 33 31 29 28 28 27 27 28 29 27 25 22 21 22 23 23 23 22 21 18 16 13 11 10 6 3 6 5 5 8 14 17 19 21 21 21 23 26 27 29 32 35
6 7 6 5 5 4 4 7 10 11 12 13 15 16 17 18 20 21 22 24 27 29 30 31 31 32 33 33 33 35 35 34 31 28 28 29 29 28 30 32 35 36 35 33 31 31 32 31 29 29 30 31 31 30 27 25 24 25 25 24 22 21 20 18 16 16 17 16 10 5 3 2 1 5 8 11 15 18 19 20 23 26 27 30 33
7 7 5 4 4 4 4 7 9 11 11 12 14 15 15 17 19 20 21 23 26 27 29 30 30 31 32 32 33 34 35 35 32 28 28 28 27 28 30 32 32 34 34 32 32 33 35 35 34 34 35 36 36 35 34 32 30 28 27 26 24 21 18 16 16 16 17 16 14 12 10 8 6 5 4 5 8 12 15 17 20 24 26 29 31
6 5 4 3 4 5 6 7 9 10 11 12 13 14 14 16 17 19 20 22 24 25 27 27 28 29 30 31 33 34 35 35 31 26 24 25 25 27 29 29 29 31 31 31 33 37 38 39 39 39 38 38 38 38 38 37 35 33 31 28 26 25 23 21 19 17 15 14 14 15 13 11 10 9 7 7 7 8 9 11 15 19 21 24 26
4 4 3 2 5 7 8 8 10 11 12 12 12 12 14 15 17 18 19 21 22 23 24 25 26 27 28 29 31 32 33 33 30 26 23 22 23 26 25 24 26 28 27 30 35 39 40 41 40 38 37 37 38 38 38 38 37 37 36 33 29 27 25 25 24 20 16 14 14 15 14 13 12 11 10 9 9 8 8 9 11 13 15 18 21
4 4 4 3 5 7 7 9 11 12 13 13 12 11 13 14 16 17 18 20 20 21 22 23 24 25 26 27 29 29 30 30 29 28 25 22 22 24 22 21 25 27 26 28 34 37 38 40 39 37 36 36 36 36 36 36 37 36 37 37 35 31 27 25 25 23 20 18 17 16 17 18 18 17 17 15 13 11 10 11 12 14 16 19 21
2 3 3 4 5 6 6 8 10 12 13 13 11 11 11 13 15 16 17 18 19 20 21 22 22 23 24 26 27 28 29 30 29 29 27 24 21 22 21 21 24 25 24 27 32 34 36 37 37 36 35 34 34 34 34 35 36 35 35 36 36 35 32 28 25 23 22 21 20 19 19 19 20 20 20 18 16 15 14 15 16 19 22 24 25
0 2 5 7 7 6 5 5 7 10 12 12 11 11 10 11 13 15 16 17 17 18 20 21 21 22 22 24 25 27 28 29 29 29 28 25 21 19 19 20 22 23 24 27 30 31 33 34 35 35 34 32 31 32 33 34 34 33 33 34 34 34 34 31 28 26 24 21 19 19 18 17 17 17 16 16 15 15 16 17 18 19 20 22 23
1 3 7 8 6 5 4 4 5 7 10 12 11 11 10 10 12 13 15 16 16 17 19 20 21 21 21 22 23 25 27 28 29 29 28 26 23 20 18 18 20 22 24 28 29 29 30 32 32 32 32 31 30 29 31 32 33 32 32 32 31 32 32 31 31 31 28 25 23 21 18 15 14 13 13 13 12 11 12 12 12 13 14 16 17
2 5 9 7 4 3 2 2 3 5 8 10 11 11 10 11 12 12 13 14 15 16 18 19 20 20 21 21 22 23 25 27 29 29 28 27 25 23 20 20 22 23 24 26 28 28 28 29 29 29 29 30 31 30 29 30 31 31 31 31 30 30 31 31 31 32 31 29 28 26 24 20 17 15 16 16 15 14 13 11 11 11 12 13 15
5 8 9 6 3 1 1 2 1 3 5 8 10 10 11 11 11 11 11 12 14 15 16 18 19 20 20 20 21 22 23 25 27 28 27 27 26 26 24 23 23 23 24 25 26 26 26 27 27 27 27 28 29 30 30 29 30 30 30 30 30 30 30 30 30 30 30 30 29 28 28 26 24 21 20 20 20 19 18 17 15 15 15 14 15
7 8 7 5 3 2 2 1 0 1 2 5 7 8 9 10 10 10 9 10 13 14 15 16 18 19 20 20 20 21 22 23 24 25 26 25 26 26 26 23 21 21 23 24 25 25 25 25 25 26 26 27 28 28 28 29 29 30 30 30 30 29 29 29 29 28 29 29 28 28 28 28 27 25 23 22 21 20 20 19 18 18 17 17 17
7 8 7 5 4 2 2 2 2 1 0 3 5 6 7 8 9 9 9 9 11 13 14 14 16 18 19 20 20 20 21 22 23 24 25 25 25 26 26 25 22 21 20 21 22 23 24 24 24 24 24 24 26 27 27 27 27 28 29 29 29 28 28 28 28 28 28 27 27 27 26 26 26 26 25 24 23 22 21 19 18 17 17 17 17
8 9 8 7 5 4 3 3 3 2 1 2 3 4 5 6 7 7 8 7 8 11 12 13 14 16 18 19 19 20 21 21 22 23 24 25 25 24 24 25 24 23 22 21 20 20 21 22 22 22 21 22 23 24 25 26 26 27 27 27 27 27 27 28 28 27 27 27 26 26 25 25 24 23 23 24 23 23 22 21 19 17 15 15 16
8 9 10 8 6 4 3 3 2 2 1 2 3 3 3 4 5 6 7 6 7 9 11 11 12 14 16 17 18 19 19 20 21 21 22 24 24 23 22 23 24 24 24 24 22 20 19 20 21 20 19 19 21 21 22 24 25 26 27 27 27 26 26 26 26 26 26 26 25 25 25 24 23 22 21 21 20 21 21 21 20 18 16 14 13
9 10 11 9 7 5 4 3 3 2 1 2 2 2 2 3 4 4 6 6 6 7 9 9 10 12 14 16 17 17 18 19 19 19 20 21 23 22 21 21 21 22 23 24 24 23 20 19 19 20 19 19 20 20 21 22 23 24 25 26 26 26 24 23 23 23 23 23 23 24 24 24 23 23 21 20 18 18 19 19 19 18 16 15 13
10 12 11 9 7 6 5 4 4 2 1 2 3 3 3 4 4 4 5 6 5 6 8 8 8 10 12 14 15 16 16 17 18 18 18 19 20 21 20 19 19 20 21 22 23 23 22 20 18 18 19 20 20 20 21 22 23 23 23 24 24 24 23 22 21 21 21 20 21 21 22 22 23 23 22 20 17 16 16 16 16 15 15 14 13
12 13 12 9 8 7 6 6 5 4 3 3 3 3 3 4 4 4 6 6 6 7 8 8 8 9 11 12 13 14 14 15 16 17 18 18 18 20 20 19 18 18 19 19 20 21 22 21 18 17 18 18 19 19 20 21 22 22 22 22 21 21 21 20 19 19 19 18 18 19 19 19 19 20 20 20 18 16 14 13 13 12 12 11 11
15 15 13 10 9 7 7 8 8 7 5 4 3 3 4 4 5 5 6 7 8 9 10 9 9 9 10 11 12 12 13 13 15 16 17 17 17 18 19 19 18 17 17 18 18 18 19 20 19 18 17 17 17 18 20 21 22 22 21 21 20 19 19 19 18 17 16 16 16 16 16 15 15 16 17 18 18 16 13 12 11 10 9 9 8
16 16 13 11 10 8 8 9 9 9 7 5 4 4 4 4 5 5 6 7 8 10 11 11 10 10 10 10 11 12 11 12 13 14 15 16 16 17 17 18 18 18 17 18 18 18 18 18 18 18 18 17 17 18 20 21 23 23 21 20 18 17 17 17 16 15 14 14 13 14 14 13 13 13 14 15 16 14 12 10 9 8 7 7 7
15 16 14 12 11 10 9 10 10 9 7 6 6 5 4 5 5 5 6 7 8 9 10 11 11 12 11 11 12 11 11 11 12 13 14 14 15 16 16 17 17 17 17 17 17 17 18 17 17 17 17 17 17 18 19 21 23 23 21 18 16 15 15 15 14 13 13 12 12 12 12 12 12 12 11 12 12 11 10 9 8 6 5 5 4
15 16 15 14 12 11 10 11 10 9 8 7 7 6 5 5 5 5 6 6 7 8 9 10 11 12 12 12 12 12 11 11 11 11 12 13 14 15 15 16 16 16 16 16 16 16 17 17 17 17 17 16 17 17 18 20 23 23 20 16 14 13 13 13 12 12 12 12 12 12 12 12 11 11 10 9 9 8 7 7 7 6 5 3 3
14 17 17 15 13 11 11 12 12 11 10 9 8 8 7 7 6 6 6 7 7 8 9 10 10 11 12 12 12 12 12 11 11 11 11 13 13 14 14 15 16 16 16 16 16 16 17 17 17 17 17 17 17 17 17 19 22 22 19 15 13 12 12 12 11 12 13 13 14 15 15 15 14 12 10 8 6 5 4 4 5 6 5 3 3
13 16 17 16 14 12 13 13 14 13 12 11 10 9 9 9 8 8 8 8 8 9 9 9 9 10 11 12 12 12 12 12 12 12 12 13 13 13 14 15 15 16 16 16 15 15 16 17 17 17 16 16 16 17 17 18 20 21 18 15 13 12 11 11 11 12 13 14 15 17 18 17 16 14 11 8 6 5 4 2 2 4 4 3 1
14 15 17 17 16 14 14 15 15 15 15 13 12 11 11 10 10 9 9 9 10 11 10 10 10 9 10 11 11 12 12 13 13 13 13 14 14 14 14 14 14 15 15 15 14 14 15 16 17 17 16 15 15 16 16 17 19 19 18 15 13 11 10 10 11 12 12 13 15 17 18 18 17 15 12 9 6 4 3 2 2 3 4 4 3
16 16 17 18 18 17 16 16 16 17 16 15 14 12 12 11 11 10 10 11 12 12 11 11 10 10 10 10 11 11 12 12 13 14 14 14 14 14 14 13 13 13 13 13 13 13 14 15 16 17 16 14 14 15 16 16 17 17 17 16 14 12 10 10 10 10 11 12 14 16 17 17 16 15 13 9 6 4 2 2 2 3 4 5 5
Wind_Direction
13 8 9 9 14 25 34 47 59 50 32 16 9 13 15 11 9 360 344 333 329 327 325 325 324 322 322 323 324 324 322 320 318 315 313 315 316 316 317 316 315 313 310 310 315 317 312 303 297 295 293 292 290 288 282 272 269 270 263 255 250 245 243 244 248 252 250 242 237 237 235 233 237 239 236 230 223 219 218 216 212 209 209 213 217
22 5 7 16 24 34 46 62 76 56 29 17 14 17 18 17 12 359 351 350 346 340 336 332 328 326 325 325 326 328 328 327 325 321 317 316 316 317 317 318 317 316 313 312 314 314 312 308 302 298 295 293 291 288 284 274 268 269 263 252 246 244 244 246 249 251 250 242 235 235 235 234 236 237 235 233 228 223 219 214 211 209 211 214 217
63 50 52 56 56 57 61 66 67 53 37 29 24 23 22 18 9 357 354 354 350 347 346 342 336 332 329 329 329 331 332 333 333 331 327 322 319 317 317 319 319 317 316 314 313 310 310 309 306 304 303 298 291 286 284 278 267 264 263 253 245 244 244 245 247 249 249 244 236 237 238 237 237 237 238 238 233 227 222 216 213 212 210 212 216
85 81 77 73 70 69 67 65 63 57 51 45 39 34 31 28 23 16 9 2 357 354 351 346 341 337 335 335 336 337 338 338 338 337 335 332 328 322 319 319 319 319 318 316 312 309 309 307 303 305 308 303 296 290 287 284 272 260 256 249 244 248 250 248 247 247 248 246 241 240 241 241 241 241 242 240 235 230 226 220 217 215 212 211 214
84 81 79 77 76 74 70 66 62 58 54 50 44 39 35 33 32 30 27 24 20 15 8 0 354 350 348 347 346 345 343 342 341 341 339 338 336 332 326 321 319 319 319 317 313 308 307 305 299 299 306 306 302 297 290 287 281 268 258 250 245 248 250 249 250 249 249 249 246 244 244 243 244 244 243 241 235 230 227 225 222 219 215 213 214
83 82 81 79 76 72 69 63 58 54 51 47 44 40 38 36 34 34 33 32 30 27 24 18 13 9 5 1 357 354 351 347 345 344 343 342 340 337 332 327 322 320 319 318 314 308 306 305 299 293 295 301 304 301 294 288 284 277 267 258 254 254 252 249 250 251 251 252 250 248 246 244 244 243 241 240 237 231 227 225 224 222 218 215 214
85 84 80 75 70 65 61 56 53 50 45 44 44 44 45 43 40 37 33 31 30 28 26 23 21 18 15 11 7 3 359 354 351 350 349 347 344 340 337 332 325 320 318 317 313 307 305 305 300 290 284 288 293 297 295 290 285 278 271 267 265 261 257 253 250 249 250 251 251 249 247 245 244 243 242 240 237 234 229 225 223 221 219 217 215
88 82 74 67 62 57 57 56 54 48 43 43 47 49 50 47 43 39 34 31 29 26 25 24 22 21 18 16 13 10 6 2 359 356 354 352 348 344 341 336 330 323 317 315 312 308 304 304 303 297 286 281 283 284 283 282 282 278 272 273 274 269 263 259 254 251 248 246 247 248 247 247 246 244 241 236 232 230 229 227 226 223 220 218 215
87 78 68 63 60 59 64 64 57 49 45 47 48 49 49 47 43 41 37 33 31 28 26 25 23 22 20 17 15 13 11 11 9 4 358 356 353 349 345 339 336 330 322 317 314 309 303 301 304 306 299 286 280 278 273 268 269 271 269 271 274 274 270 267 261 256 251 246 244 246 246 247 247 242 236 233 233 232 229 227 228 227 223 219 215
85 76 71 72 73 73 74 70 61 55 51 50 49 48 47 44 42 40 38 35 33 31 28 25 23 22 20 18 16 14 15 16 15 10 4 0 357 353 349 345 341 338 332 325 320 315 310 303 301 302 298 291 284 278 271 265 261 263 263 263 266 269 270 270 266 259 254 249 246 245 245 246 246 242 237 236 236 233 229 227 227 224 220 216 213
85 84 83 84 85 84 80 74 67 60 56 53 51 50 47 45 42 39 37 35 33 31 28 25 23 21 20 18 16 16 16 17 15 13 10 7 2 358 355 351 347 345 342 337 329 322 318 311 305 301 298 295 290 281 273 267 263 262 263 263 262 261 261 266 268 263 257 251 248 246 245 245 245 242 239 238 235 232 232 230 224 218 216 214 212
94 95 91 85 83 82 79 74 68 62 58 55 54 51 48 45 42 39 36 33 31 30 27 25 22 20 19 18 18 16 16 17 15 13 13 12 8 5 1 357 353 350 347 345 339 333 326 320 315 311 307 304 299 290 279 271 268 266 268 269 268 263 257 257 262 265 261 254 250 248 247 247 246 242 237 234 231 231 232 229 223 221 222 219 213
101 98 89 82 79 77 73 70 66 63 60 58 55 52 49 46 43 40 37 33 30 29 27 25 23 20 17 17 18 17 14 14 14 13 13 13 11 9 7 3 359 355 352 349 347 343 337 330 325 321 318 311 303 296 287 278 272 268 267 270 272 270 262 254 253 256 258 255 253 251 250 250 249 245 240 235 231 230 229 228 226 225 226 223 217
100 93 85 79 75 71 68 65 63 61 60 57 54 52 50 48 45 41 37 33 30 28 26 24 23 21 18 16 16 16 14 12 12 11 12 13 12 11 9 7 4 1 357 354 351 348 345 340 336 334 332 326 315 306 298 288 279 272 267 266 269 270 267 261 253 249 249 250 251 251 251 252 252 251 250 244 239 235 233 232 231 229 227 225 221
96 88 83 77 71 67 64 63 61 59 57 54 52 51 49 47 44 40 37 34 31 28 26 24 24 22 19 15 14 13 13 11 10 10 10 11 12 12 11 9 7 5 2 360 357 353 348 345 344 343 342 340 334 324 313 301 290 281 274 268 267 266 265 264 261 254 250 248 250 250 249 250 252 253 254 251 246 244 242 241 237 231 228 224 219
94 88 83 76 70 65 62 60 58 56 54 52 51 49 47 44 42 39 36 33 31 29 27 25 24 23 20 16 13 11 10 10 9 9 8 8 9 11 11 10 9 8 6 4 2 359 355 351 348 347 346 344 342 337 327 314 302 292 283 274 268 265 262 262 263 262 257 252 249 248 247 248 248 249 250 249 248 244 240 235 229 224 221 218 215
93 88 83 77 71 65 60 57 55 54 52 51 50 48 45 43 41 37 34 32 31 29 29 28 26 24 21 17 13 9 7 9 9 8 7 7 8 9 9 9 9 8 7 6 5 3 1 359 354 350 349 347 346 344 338 326 314 304 293 281 273 267 262 262 263 264 263 256 249 245 244 243 244 247 248 247 246 243 236 228 225 222 219 216 215
93 89 84 79 73 65 60 55 53 51 50 49 47 46 44 42 39 37 34 32 31 30 30 30 28 27 24 19 13 8 5 6 8 8 8 7 8 8 8 7 7 6 5 5 5 4 3 2 359 354 351 350 350 349 346 339 328 317 305 291 280 272 265 263 265 266 267 261 251 244 242 242 243 246 248 247 246 244 238 234 231 227 220 219 218
93 89 85 81 75 67 60 54 50 48 45 44 44 43 42 41 39 36 34 32 31 30 30 30 29 29 27 23 16 9 5 5 7 9 9 8 8 8 7 6 6 5 3 2 2 2 2 1 360 357 354 351 350 350 349 345 339 331 320 306 291 278 268 263 264 266 269 265 256 248 246 246 246 246 246 245 243 243 241 240 237 230 224 224 222
97 91 85 81 77 69 59 52 47 43 40 39 40 40 40 40 39 36 34 32 31 29 29 29 29 28 28 26 21 13 8 7 7 10 13 12 9 7 7 6 6 4 3 2 0 0 360 359 359 357 354 351 348 348 349 347 344 339 331 320 304 288 274 264 260 263 267 265 259 255 252 251 250 249 248 245 243 242 241 239 237 235 232 228 223
105 98 89 82 77 69 60 50 43 40 37 34 34 37 38 38 38 36 34 32 30 29 29 29 28 27 26 25 24 19 13 11 12 12 14 15 11 7 6 8 7 4 2 2 0 360 358 358 357 356 354 350 346 346 348 348 345 342 338 333 319 299 283 272 263 261 264 266 263 260 257 256 254 252 252 250 247 244 240 234 233 235 236 232 226
112 105 94 85 76 68 59 49 43 40 35 31 30 33 36 36 36 36 34 31 30 29 28 28 28 27 25 24 25 25 20 16 16 15 15 15 11 6 6 9 7 4 3 2 1 1 359 357 357 356 354 351 346 347 349 349 348 347 344 339 329 312 295 282 269 261 262 265 267 266 264 262 259 255 255 253 248 245 242 237 234 234 234 234 233
113 111 102 88 78 69 59 49 44 39 34 30 28 30 33 34 35 35 33 32 30 28 27 26 26 26 25 24 25 25 23 20 20 20 19 15 10 5 6 8 6 4 5 3 1 1 1 359 359 358 357 354 350 352 355 355 354 354 350 344 338 330 310 285 262 251 256 258 258 260 261 260 257 254 252 251 248 245 244 240 236 233 232 232 234
110 110 109 98 86 75 61 50 43 37 32 29 26 27 30 32 33 33 33 32 31 28 26 25 25 25 24 23 23 23 21 19 20 22 21 16 10 6 6 7 5 5 6 6 4 3 3 3 2 2 3 3 360 357 0 3 3 2 0 355 349 343 330 300 248 224 237 246 244 244 245 246 247 246 243 242 242 241 241 239 235 231 230 229 229
112 107 109 106 96 81 61 46 39 33 29 27 25 26 28 30 32 32 32 32 31 29 26 24 24 24 23 22 22 20 18 16 16 18 19 16 11 8 7 7 6 6 8 9 8 7 8 8 8 9 13 15 13 9 10 12 12 11 11 12 10 8 7 1 359 110 182 218 231 234 233 231 233 234 233 230 230 231 234 235 233 231 231 229 228
125 110 104 96 93 83 55 38 32 28 26 25 26 26 26 29 31 31 32 33 31 29 27 25 23 22 22 21 21 18 16 14 12 13 15 16 12 9 9 9 8 8 11 12 12 13 15 15 16 19 23 24 24 22 20 19 18 16 17 21 25 27 30 28 22 31 53 75 189 224 233 229 224 225 224 219 216 215 218 224 227 227 228 227 225
141 117 102 85 85 81 44 31 28 24 23 25 26 26 27 30 31 31 32 34 32 30 28 25 23 22 21 20 20 19 17 14 12 10 9 10 10 9 11 11 10 10 12 14 17 21 23 23 23 25 28 30 31 30 29 27 27 26 26 29 33 37 40 42 38 36 39 44 53 71 68 56 150 203 210 209 206 201 197 204 213 216 218 220 219
144 128 115 90 80 71 45 34 28 23 22 25 27 29 30 32 32 32 33 33 32 30 29 27 26 24 21 20 19 19 18 16 14 11 7 7 10 11 10 11 12 13 13 16 22 27 28 27 27 27 27 29 29 30 31 31 32 34 33 34 38 42 43 44 45 49 50 49 50 57 61 66 80 105 147 180 191 188 183 186 194 197 201 208 211
144 143 136 103 82 72 56 45 38 32 30 29 30 32 34 35 36 36 34 33 32 31 29 29 29 27 25 23 20 19 18 17 16 13 10 11 10 7 7 13 17 16 16 20 26 29 29 29 28 27 26 27 27 28 29 31 32 34 35 35 37 40 42 43 44 47 53 56 60 64 65 66 70 78 98 123 140 157 172 183 184 180 183 192 195
144 165 170 125 89 78 63 54 51 45 40 36 34 36 37 37 39 39 37 34 32 31 30 30 29 29 28 26 23 21 18 18 17 14 13 10 5 4 9 16 17 16 18 23 27 29 29 28 28 27 26 26 27 28 28 30 32 34 35 36 36 37 41 45 47 48 50 55 64 70 73 74 72 71 77 89 101 117 138 157 168 167 167 169 165
125 152 176 150 100 83 68 60 57 50 43 37 36 38 39 38 40 42 39 34 32 31 30 29 28 27 26 25 24 22 18 18 18 17 16 14 11 13 18 19 17 17 19 22 26 30 30 28 27 27 26 25 27 29 30 30 32 33 35 37 38 38 39 40 42 46 52 59 63 67 70 73 73 71 73 77 83 92 104 119 133 139 139 140 137
112 122 153 139 109 95 78 64 57 48 41 37 35 37 38 37 39 41 39 35 32 30 30 29 27 26 25 24 23 21 18 17 18 18 18 19 20 20 20 17 18 20 21 22 25 28 29 28 27 27 26 26 27 29 30 31 32 33 35 38 39 41 42 41 39 40 46 53 58 60 62 63 64 66 68 71 76 83 92 101 110 117 121 122 122
150 112 134 130 118 110 90 66 54 45 39 36 34 34 36 36 37 39 37 34 31 30 29 28 26 25 25 25 25 23 20 18 18 18 18 19 19 19 18 16 17 20 23 25 26 26 26 28 28 27 27 28 28 29 30 31 32 33 36 38 40 41 43 45 45 45 46 47 50 54 56 56 57 61 63 65 69 77 85 90 96 102 105 106 106
200 137 141 136 127 119 96 68 52 41 38 38 36 33 33 33 35 37 35 31 30 30 29 28 27 25 24 24 25 25 22 19 19 19 18 19 19 16 13 15 18 22 25 27 26 24 24 27 28 29 30 30 29 28 28 30 32 33 35 37 39 41 42 44 46 49 51 52 51 51 52 55 58 63 67 69 71 76 80 83 85 90 92 93 95
164 153 152 145 130 119 98 56 38 31 38 45 43 37 35 34 32 34 33 29 28 28 28 28 27 25 24 24 24 25 23 20 18 18 18 20 20 17 15 16 19 22 24 25 25 23 22 24 26 28 29 30 29 28 27 28 31 33 34 35 37 39 40 42 44 46 50 54 56 56 55 57 61 69 74 73 71 71 72 75 80 88 94 97 101
152 154 157 158 153 185 279 304 357 14 32 47 47 42 40 37 31 28 29 27 25 25 27 28 26 24 23 23 23 24 23 20 17 18 19 21 21 19 19 19 18 18 19 21 22 23 23 24 25 26 26 27 28 28 27 27 30 32 33 34 35 37 39 40 41 43 45 49 54 56 57 58 60 66 72 75 74 73 72 73 76 80 82 86 90
156 157 165 184 207 243 264 261 182 5 18 40 45 43 42 40 32 25 23 24 22 20 22 25 25 24 23 22 23 23 23 21 18 17 19 22 23 22 22 21 18 15 15 16 18 21 23 25 25 25 25 26 28 30 30 29 32 34 34 32 33 35 38 39 40 41 42 44 48 50 53 55 57 60 65 70 72 72 72 72 73 74 75 78 81
175 175 184 200 211 209 184 149 136 158 347 27 37 40 41 40 34 25 21 19 16 15 16 20 21 21 20 21 22 22 21 20 19 18 19 22 23 24 25 25 22 19 16 13 13 15 18 20 22 25 26 27 29 31 32 32 33 32 30 30 31 33 34 37 40 41 41 41 42 44 45 47 51 56 62 66 68 68 68 68 69 71 74 77 81
201 199 202 207 215 216 186 145 133 160 207 6 17 24 30 33 31 25 19 17 11 8 11 15 15 15 16 17 20 21 20 19 19 19 21 22 23 23 24 26 28 27 24 18 15 14 14 16 20 24 28 30 30 29 30 32 31 28 26 27 30 31 32 33 34 37 40 40 39 39 40 41 42 47 56 64 67 68 68 67 66 68 72 78 83
214 207 206 208 215 223 206 165 151 171 220 328 347 355 2 10 17 19 16 13 4 360 5 10 9 8 10 13 17 19 20 19 18 18 20 22 22 22 23 25 27 29 28 25 21 17 15 19 24 27 28 29 29 29 29 29 27 24 21 21 24 28 31 32 31 32 35 37 37 36 37 38 39 41 47 55 62 65 67 66 63 63 68 76 84
221 207 206 208 215 223 217 193 187 194 251 291 299 310 323 329 341 359 6 7 357 350 357 3 0 359 3 9 13 16 18 19 18 17 18 21 21 20 20 22 24 25 25 25 23 19 16 20 27 30 28 27 27 27 29 29 25 19 15 14 16 19 23 29 32 31 31 32 35 34 33 34 36 38 43 49 57 64 67 65 62 61 66 75 84
220 207 208 214 221 230 236 229 221 224 257 264 248 243 271 294 304 324 343 351 351 348 350 352 350 350 356 3 9 12 14 17 18 16 15 18 20 19 18 20 20 20 20 21 22 22 20 21 25 28 28 26 24 24 25 25 22 17 13 10 9 11 15 21 29 32 30 29 31 31 30 30 32 36 39 44 51 60 66 65 62 60 65 76 88
216 208 211 218 223 232 241 240 238 244 253 253 248 253 270 276 275 293 318 332 340 345 346 342 341 345 352 358 4 7 9 13 16 15 13 15 18 17 16 17 18 18 18 18 19 21 23 25 27 29 28 25 24 25 25 23 18 15 11 7 4 6 10 16 24 31 31 27 26 28 29 29 30 32 35 36 39 47 57 63 65 64 66 75 87
213 210 215 219 222 231 237 236 240 249 252 253 264 282 289 277 266 281 308 324 335 343 344 340 339 345 353 358 1 1 2 8 14 13 12 14 15 14 13 13 14 15 15 14 15 16 19 23 27 28 27 26 26 26 26 22 16 12 8 4 2 5 8 13 21 28 29 24 23 25 26 26 25 26 27 26 26 30 41 53 62 70 75 81 89
212 214 219 220 223 232 237 237 242 250 253 258 273 289 300 294 283 294 316 326 332 341 345 343 342 345 350 357 358 355 355 4 11 11 10 12 12 11 10 10 10 11 12 12 12 12 13 15 19 20 21 22 22 22 21 19 15 10 6 2 3 7 11 14 20 27 27 23 21 21 20 19 18 16 17 19 20 23 31 40 48 61 76 85 94
216 219 221 222 227 237 242 242 244 248 251 261 274 287 303 308 304 314 331 334 335 341 347 349 349 348 348 353 356 353 352 358 5 8 8 9 10 10 9 8 7 8 10 10 11 12 12 11 12 13 14 15 16 16 16 15 13 10 6 4 6 10 13 15 21 25 25 23 21 18 14 12 11 9 8 10 14 20 29 35 38 48 66 79 87
222 224 225 226 231 241 246 244 243 245 251 262 272 278 290 304 311 319 329 334 337 341 344 347 352 352 349 349 353 355 355 356 358 1 4 6 6 6 7 7 7 7 7 8 9 11 11 10 9 9 9 10 11 12 12 12 12 10 8 9 12 15 17 19 21 21 20 18 15 11 5 360 357 357 357 358 2 12 27 37 39 45 58 85 110
225 226 227 229 233 241 245 242 242 245 252 261 270 275 280 291 304 310 314 319 327 331 332 336 345 349 348 346 350 355 357 355 352 352 356 359 359 359 360 2 4 5 6 6 5 7 9 9 8 7 7 6 7 9 10 10 11 11 12 13 16 18 19 20 20 18 17 14 10 5 1 358 354 352 353 354 353 353 5 28 39 40 46 72 131
228 229 231 233 236 240 239 237 240 246 252 256 263 271 276 282 291 298 302 306 310 313 316 321 331 340 343 343 345 349 353 354 351 347 348 350 351 351 354 357 359 360 2 3 3 3 4 5 5 5 5 5 6 7 9 10 11 12 14 15 16 17 17 17 17 17 16 13 8 3 0 1 2 2 4 6 3 352 340 339 1 16 23 33 79
233 235 235 237 238 238 236 237 243 251 254 253 257 265 271 274 279 285 288 290 294 298 302 308 316 326 334 338 339 341 346 351 351 348 345 344 343 344 348 351 353 355 357 360 2 2 0 360 1 2 2 4 5 6 7 10 11 12 14 16 15 13 12 11 10 10 9 7 5 1 360 0 4 7 10 13 12 5 351 334 330 337 344 348 346
239 241 241 241 241 239 238 240 245 251 252 250 254 261 266 268 272 274 273 277 283 288 291 296 303 312 321 327 330 331 335 341 346 347 346 342 339 338 340 343 347 350 353 358 3 5 1 358 359 359 359 2 6 7 8 11 11 10 11 14 13 10 7 3 1 3 3 1 0 360 359 360 3 8 13 15 13 5 358 348 336 329 332 335 330
Height
1545 1545 1544 1543 1541 1540 1539 1539 1538 1538 1537 1536 1535 1534 1533 1532 1531 1530 1529 1528 1527 1525 1524 1522 1521 1519 1517 1515 1513 1511 1509 1507 1506 1504 1503 1501 1500 1498 1496 1494 1492 1490 1488 1486 1485 1484 1481 1479 1477 1475 1474 1472 1471 1470 1469 1469 1469 1470 1469 1469 1469 1469 1470 1471 1471 1471 1473 1475 1477 1479 1480 1481 1482 1484 1486 1488 1490 1491 1493 1496 1499 1501 1502 1504 1506
1546 1545 1544 1543 1542 1541 1540 1540 1539 1539 1538 1537 1536 1535 1534 1533 1532 1531 1529 1528 1527 1525 1523 1522 1520 1519 1517 1515 1513 1510 1508 1506 1504 1503 1501 1500 1498 1496 1495 1492 1490 1488 1486 1484 1483 1482 1479 1477 1474 1473 1472 1470 1469 1468 1467 1467 1466 1466 1466 1466 1466 1467 1468 1469 1469 1469 1470 1472 1474 1475 1477 1477 1478 1480 1482 1484 1486 1488 1490 1492 1495 1497 1499 1501 1503
1546 1546 1545 1543 1542 1542 1541 1541 1540 1540 1539 1538 1537 1536 1535 1534 1532 1531 1530 1528 1527 1525 1524 1522 1520 1519 1517 1515 1513 1510 1508 1506 1504 1502 1499 1498 1496 1495 1493 1491 1489 1486 1484 1482 1481 1480 1477 1475 1473 1471 1470 1468 1466 1465 1465 1464 1464 1463 1463 1463 1463 1464 1465 1466 1467 1467 1468 1469 1471 1472 1473 1474 1475 1477 1478 1480 1482 1484 1486 1488 1491 1493 1495 1498 1500
1547 1546 1545 1544 1544 1543 1542 1542 1541 1541 1540 1539 1538 1537 1536 1535 1533 1532 1530 1529 1527 1526 1524 1522 1521 1519 1517 1515 1513 1510 1508 1505 1503 1501 1499 1497 1495 1493 1491 1490 1488 1485 1483 1481 1479 1478 1476 1473 1471 1470 1468 1466 1464 1463 1462 1461 1461 1460 1460 1460 1460 1461 1462 1463 1463 1464 1465 1466 1468 1469 1470 1471 1472 1474 1475 1477 1479 1481 1483 1485 1488 1490 1491 1494 1497
1548 1547 1546 1546 1545 1545 1544 1543 1543 1542 1541 1540 1539 1538 1536 1535 1534 1532 1531 1529 1528 1526 1524 1523 1521 1519 1517 1515 1512 1510 1507 1505 1503 1501 1499 1497 1494 1492 1490 1488 1486 1484 1482 1480 1478 1476 1474 1472 1470 1468 1466 1464 1463 1462 1460 1459 1458 1457 1457 1457 1458 1458 1459 1460 1461 1461 1462 1464 1465 1466 1466 1467 1469 1470 1472 1473 1475 1477 1480 1482 1484 1486 1488 1491 1494
1549 1549 1548 1547 1547 1546 1546 1545 1544 1544 1543 1542 1540 1539 1537 1536 1534 1533 1531 1530 1528 1526 1525 1523 1521 1520 1517 1515 1512 1510 1507 1505 1503 1500 1498 1496 1493 1491 1488 1486 1484 1482 1480 1479 1477 1475 1473 1471 1468 1466 1464 1462 1461 1460 1459 1457 1456 1455 1454 1454 1455 1455 1456 1456 1457 1458 1459 1460 1461 1462 1463 1463 1464 1466 1467 1469 1471 1474 1477 1479 1481 1482 1484 1488 1491
1551 1550 1550 1549 1548 1548 1547 1547 1546 1545 1544 1543 1541 1540 1538 1536 1535 1533 1532 1530 1528 1526 1525 1524 1522 1520 1518 1515 1512 1510 1507 1505 1502 1500 1497 1495 1492 1490 1487 1485 1482 1480 1478 1477 1475 1473 1471 1469 1467 1465 1463 1461 1459 1457 1456 1455 1454 1453 1452 1452 1452 1452 1452 1453 1454 1455 1456 1457 1457 1458 1459 1459 1460 1462 1464 1466 1468 1470 1473 1474 1475 1478 1480 1484 1487
1552 1552 1551 1550 1550 1549 1549 1548 1547 1546 1545 1544 1542 1540 1539 1537 1536 1534 1532 1530 1528 1527 1526 1524 1523 1520 1518 1515 1513 1510 1508 1504 1501 1499 1496 1494 1492 1489 1486 1483 1481 1478 1476 1474 1473 1471 1469 1467 1465 1462 1460 1459 1458 1456 1454 1453 1451 1451 1450 1450 1449 1449 1450 1450 1450 1451 1452 1453 1454 1454 1454 1455 1456 1458 1461 1462 1463 1465 1467 1468 1470 1473 1476 1479 1483
1553 1553 1552 1552 1551 1551 1551 1550 1549 1548 1546 1544 1542 1541 1539 1538 1537 1535 1533 1531 1529 1528 1527 1525 1523 1520 1518 1515 1513 1510 1508 1505 1502 1499 1496 1493 1491 1489 1486 1483 1479 1476 1474 1472 1470 1469 1467 1465 1462 1460 1458 1457 1456 1454 1453 1451 1450 1448 1448 1447 1447 1447 1447 1447 1447 1447 1448 1449 1449 1450 1451 1451 1452 1454 1456 1457 1457 1459 1462 1465 1467 1469 1472 1475 1479
1555 1554 1554 1553 1553 1552 1552 1551 1550 1549 1547 1545 1543 1542 1540 1539 1537 1535 1533 1532 1530 1529 1527 1525 1522 1520 1517 1515 1513 1511 1508 1505 1503 1501 1497 1494 1491 1488 1486 1483 1479 1476 1473 1470 1468 1466 1465 1463 1460 1458 1456 1454 1453 1452 1450 1449 1448 1446 1446 1445 1444 1444 1443 1443 1443 1443 1443 1444 1445 1445 1446 1446 1448 1450 1451 1452 1454 1457 1459 1462 1464 1466 1469 1472 1475
1556 1556 1555 1555 1554 1554 1553 1552 1551 1549 1547 1546 1544 1543 1542 1540 1538 1536 1534 1533 1532 1530 1528 1525 1522 1520 1518 1515 1513 1511 1509 1506 1504 1502 1499 1495 1492 1488 1486 1483 1479 1476 1472 1470 1467 1464 1462 1461 1458 1456 1454 1452 1450 1449 1448 1446 1445 1444 1443 1442 1442 1441 1440 1440 1439 1439 1440 1440 1440 1441 1441 1442 1443 1445 1447 1449 1451 1453 1455 1458 1461 1463 1465 1468 1471
1558 1557 1557 1557 1556 1555 1554 1553 1552 1550 1549 1548 1546 1545 1543 1541 1539 1537 1536 1534 1532 1530 1528 1525 1523 1521 1518 1516 1514 1511 1509 1507 1505 1502 1499 1496 1493 1489 1486 1483 1479 1476 1473 1470 1467 1464 1461 1459 1457 1454 1452 1450 1448 1446 1445 1443 1442 1441 1440 1439 1439 1438 1437 1437 1436 1436 1437 1437 1437 1437 1437 1438 1440 1441 1443 1445 1447 1448 1451 1454 1457 1459 1461 1464 1466
1559 1559 1559 1558 1557 1556 1555 1554 1552 1551 1550 1549 1548 1546 1544 1542 1540 1539 1537 1535 1533 1531 1528 1526 1524 1521 1519 1516 1514 1512 1510 1507 1505 1503 1500 1497 1494 1490 1487 1483 1480 1476 1473 1470 1466 1463 1460 1457 1455 1453 1450 1448 1445 1443 1442 1440 1439 1437 1436 1435 1435 1435 1434 1433 1433 1433 1434 1434 1434 1434 1435 1436 1436 1438 1440 1442 1443 1445 1446 1449 1452 1455 1457 1459 1462
1560 1559 1559 1559 1558 1557 1556 1555 1554 1553 1552 1551 1549 1547 1545 1543 1541 1540 1538 1536 1533 1531 1529 1526 1524 1521 1519 1517 1515 1512 1510 1508 1505 1503 1500 1498 1494 1491 1488 1484 1481 1477 1473 1470 1466 1463 1460 1457 1454 1451 1449 1446 1443 1441 1439 1437 1435 1434 1433 1432 1431 1431 1430 1430 1429 1430 1430 1431 1431 1431 1432 1433 1433 1435 1437 1439 1440 1441 1442 1443 1445 1448 1451 1454 1457
1561 1560 1560 1559 1559 1558 1557 1556 1555 1554 1553 1551 1549 1547 1546 1544 1542 1541 1539 1536 1533 1531 1529 1527 1524 1522 1519 1517 1515 1513 1511 1508 1506 1503 1500 1498 1495 1492 1488 1485 1481 1478 1474 1471 1467 1464 1460 1457 1454 1451 1448 1445 1443 1440 1437 1434 1432 1431 1429 1428 1427 1427 1427 1426 1426 1426 1426 1427 1427 1428 1429 1430 1431 1432 1434 1435 1437 1438 1439 1439 1441 1444 1447 1451 1454
1561 1561 1560 1560 1560 1559 1558 1557 1556 1555 1554 1552 1550 1548 1547 1545 1544 1542 1540 1537 1535 1532 1529 1527 1524 1522 1520 1518 1515 1513 1511 1509 1506 1503 1501 1498 1495 1492 1489 1485 1481 1478 1474 1471 1467 1464 1460 1457 1453 1451 1448 1445 1442 1439 1436 1433 1431 1428 1426 1424 1424 1423 1424 1423 1423 1423 1423 1423 1424 1424 1425 1426 1428 1429 1430 1432 1434 1436 1436 1436 1438 1441 1445 1448 1451
1562 1561 1561 1561 1561 1560 1560 1558 1557 1556 1555 1553 1552 1550 1548 1547 1545 1543 1541 1538 1535 1533 1530 1527 1525 1522 1520 1518 1516 1514 1511 1509 1506 1504 1501 1498 1495 1492 1488 1485 1481 1478 1475 1472 1468 1464 1461 1457 1453 1450 1447 1444 1441 1438 1435 1432 1429 1426 1423 1421 1420 1420 1420 1420 1420 1420 1420 1420 1420 1421 1422 1423 1424 1426 1427 1428 1430 1432 1432 1432 1434 1438 1442 1445 1447
1562 1562 1562 1562 1561 1561 1560 1559 1558 1557 1556 1554 1553 1551 1550 1548 1546 1544 1542 1539 1536 1533 1531 1528 1526 1523 1521 1518 1516 1514 1512 1509 1507 1504 1501 1498 1495 1492 1488 1485 1482 1478 1475 1472 1468 1465 1461 1458 1454 1450 1446 1443 1440 1437 1434 1430 1427 1424 1421 1419 1417 1416 1417 1417 1416 1416 1416 1416 1417 1417 1418 1419 1421 1422 1424 1425 1427 1427 1428 1429 1431 1434 1437 1440 1443
1563 1563 1563 1562 1562 1562 1561 1560 1559 1558 1557 1556 1554 1553 1551 1549 1547 1545 1542 1540 1537 1535 1532 1530 1527 1525 1522 1520 1517 1515 1512 1510 1508 1505 1502 1499 1496 1493 1489 1485 1482 1478 1475 1471 1468 1464 1461 1457 1454 1450 1446 1443 1440 1436 1433 1430 1426 1423 1420 1417 1414 1413 1414 1413 1412 1413 1413 1413 1414 1414 1415 1416 1418 1419 1420 1422 1423 1424 1425 1427 1429 1430 1433 1436 1438
1563 1563 1563 1563 1563 1562 1562 1561 1560 1559 1558 1557 1556 1554 1552 1550 1548 1546 1543 1541 1538 1536 1533 1531 1528 1526 1523 1521 1518 1515 1513 1510 1508 1506 1503 1500 1497 1494 1490 1486 1482 1479 1475 1471 1467 1464 1460 1456 1453 1450 1446 1443 1439 1436 1433 1430 1426 1422 1419 1415 1412 1411 1410 1410 1410 1410 1410 1410 1411 1411 1412 1413 1414 1415 1417 1418 1420 1421 1422 1424 1425 1426 1429 1432 1434
1564 1564 1564 1564 1563 1563 1562 1562 1561 1560 1559 1558 1557 1555 1553 1551 1549 1546 1544 1542 1539 1537 1534 1532 1529 1527 1524 1521 1518 1516 1513 1511 1509 1507 1504 1501 1498 1495 1491 1487 1484 1480 1477 1472 1468 1464 1460 1456 1453 1449 1446 1442 1439 1436 1432 1429 1426 1422 1418 1415 1411 1409 1407 1407 1407 1408 1408 1407 1408 1408 1409 1410 1410 1411 1412 1415 1417 1419 1420 1420 1421 1423 1425 1428 1430
1564 1565 1564 1564 1564 1563 1563 1563 1562 1561 1560 1559 1557 1555 1553 1551 1549 1547 1545 1543 1540 1538 1535 1533 1530 1528 1525 1522 1519 1517 1514 1512 1510 1507 1505 1502 1499 1496 1493 1490 1486 1482 1478 1473 1469 1465 1461 1457 1453 1450 1446 1443 1440 1436 1432 1429 1425 1421 1418 1414 1410 1407 1405 1404 1404 1405 1405 1405 1405 1405 1406 1406 1407 1408 1409 1411 1414 1416 1416 1417 1419 1420 1422 1425 1428
1565 1565 1565 1565 1565 1564 1564 1563 1562 1562 1560 1559 1557 1555 1553 1552 1550 1548 1546 1543 1541 1539 1536 1534 1531 1528 1526 1523 1520 1518 1516 1513 1511 1508 1505 1503 1500 1498 1495 1491 1488 1484 1479 1475 1471 1467 1463 1459 1455 1451 1447 1443 1440 1437 1433 1429 1425 1421 1417 1413 1409 1406 1404 1402 1402 1402 1402 1402 1403 1403 1404 1404 1404 1405 1406 1407 1409 1411 1413 1414 1415 1417 1419 1421 1425
1565 1565 1565 1565 1565 1565 1564 1564 1563 1562 1561 1559 1558 1556 1554 1552 1550 1548 1547 1544 1542 1540 1537 1534 1532 1529 1526 1524 1521 1519 1516 1514 1511 1509 1506 1504 1501 1498 1495 1492 1489 1485 1481 1477 1473 1469 1465 1461 1457 1453 1449 1444 1441 1437 1434 1430 1426 1422 1417 1413 1409 1406 1404 1402 1401 1400 1400 1401 1401 1401 1402 1402 1403 1403 1404 1405 1406 1407 1410 1411 1412 1414 1416 1418 1421
1565 1565 1565 1565 1565 1565 1565 1564 1563 1562 1561 1559 1558 1556 1554 1553 1551 1549 1548 1545 1543 1541 1538 1535 1533 1530 1527 1525 1522 1520 1517 1515 1512 1509 1507 1504 1502 1499 1496 1493 1490 1487 1483 1479 1475 1471 1467 1463 1459 1455 1450 1445 1441 1438 1434 1431 1427 1423 1419 1415 1411 1408 1406 1405 1403 1401 1399 1399 1400 1401 1401 1401 1401 1402 1402 1403 1404 1405 1406 1408 1410 1412 1413 1416 1419
1565 1565 1565 1565 1565 1565 1565 1564 1563 1562 1561 1559 1558 1556 1555 1554 1552 1550 1548 1546 1544 1542 1539 1536 1534 1531 1529 1526 1524 1521 1518 1515 1512 1509 1507 1505 1503 1500 1497 1494 1491 1488 1485 1481 1477 1473 1469 1464 1460 1456 1451 1447 1443 1439 1435 1432 1429 1425 1421 1417 1413 1410 1408 1407 1406 1404 1402 1401 1401 1402 1402 1402 1402 1402 1401 1402 1403 1403 1405 1406 1408 1410 1411 1413 1417
1565 1565 1565 1565 1565 1565 1565 1564 1563 1562 1561 1559 1558 1557 1555 1554 1553 1551 1549 1547 1545 1543 1540 1538 1535 1532 1530 1528 1525 1523 1520 1516 1513 1510 1507 1505 1503 1501 1498 1495 1492 1489 1486 1482 1478 1474 1470 1466 1462 1458 1454 1449 1445 1441 1437 1433 1430 1426 1423 1419 1416 1414 1412 1410 1409 1407 1407 1406 1404 1404 1404 1404 1404 1404 1403 1403 1403 1403 1404 1405 1406 1408 1410 1411 1414
1565 1565 1565 1565 1565 1565 1564 1564 1563 1561 1560 1559 1558 1557 1556 1555 1553 1552 1550 1548 1546 1544 1541 1539 1536 1534 1531 1529 1527 1524 1521 1517 1514 1511 1508 1506 1504 1502 1500 1497 1493 1490 1487 1484 1480 1476 1472 1468 1463 1459 1454 1450 1446 1443 1440 1436 1432 1429 1426 1423 1421 1418 1416 1414 1412 1411 1410 1410 1409 1408 1407 1407 1408 1407 1405 1405 1405 1405 1405 1405 1406 1407 1408 1410 1412
1565 1565 1565 1565 1565 1564 1564 1563 1562 1561 1560 1559 1558 1557 1556 1555 1554 1552 1551 1549 1547 1545 1543 1541 1539 1536 1534 1531 1528 1525 1522 1519 1516 1514 1512 1509 1507 1504 1501 1499 1496 1493 1491 1487 1483 1478 1474 1469 1465 1461 1457 1453 1449 1446 1443 1439 1436 1433 1430 1427 1425 1423 1420 1418 1416 1415 1414 1414 1413 1411 1410 1411 1411 1410 1408 1407 1407 1408 1408 1408 1408 1408 1408 1409 1410
1564 1565 1565 1565 1564 1564 1564 1563 1562 1561 1560 1559 1558 1557 1556 1555 1554 1553 1551 1549 1548 1546 1544 1542 1540 1538 1536 1533 1531 1528 1525 1522 1520 1517 1514 1512 1509 1506 1504 1501 1499 1496 1493 1490 1485 1480 1476 1472 1468 1465 1462 1458 1455 1451 1448 1444 1441 1438 1434 1431 1429 1427 1425 1423 1422 1420 1419 1418 1417 1415 1414 1414 1414 1413 1412 1411 1411 1411 1411 1411 1411 1411 1411 1410 1410
1564 1564 1564 1564 1564 1564 1563 1563 1562 1561 1560 1559 1558 1558 1557 1556 1555 1553 1552 1550 1549 1547 1545 1544 1542 1540 1537 1535 1533 1531 1528 1525 1522 1519 1516 1513 1510 1508 1505 1503 1501 1498 1495 1492 1487 1483 1479 1476 1473 1470 1467 1463 1460 1457 1454 1450 1447 1443 1440 1437 1434 1431 1430 1428 1427 1426 1424 1422 1421 1419 1418 1417 1417 1417 1416 1416 1416 1416 1416 1415 1414 1414 1414 1414 1413
1564 1563 1563 1563 1563 1563 1563 1562 1562 1561 1560 1559 1559 1558 1557 1556 1555 1554 1552 1551 1550 1548 1547 1545 1543 1541 1539 1537 1534 1532 1529 1527 1524 1521 1518 1515 1512 1509 1507 1505 1502 1500 1497 1494 1490 1486 1483 1480 1477 1474 1471 1468 1465 1462 1459 1456 1452 1449 1446 1443 1440 1437 1435 1433 1432 1430 1429 1427 1426 1425 1423 1423 1422 1422 1422 1422 1422 1421 1420 1419 1419 1419 1419 1419 1418
1563 1563 1563 1563 1563 1563 1563 1562 1562 1561 1561 1560 1559 1558 1557 1556 1555 1554 1553 1552 1550 1549 1547 1546 1544 1542 1540 1538 1536 1533 1530 1528 1525 1522 1519 1516 1513 1511 1509 1507 1504 1502 1499 1495 1492 1489 1486 1484 1481 1478 1475 1473 1470 1467 1464 1461 1458 1455 1452 1449 1446 1443 1441 1439 1437 1434 1433 1432 1431 1430 1429 1428 1428 1427 1427 1427 1427 1427 1425 1425 1425 1425 1425 1425 1424
1562 1562 1562 1562 1562 1562 1562 1562 1562 1561 1561 1560 1559 1558 1558 1557 1555 1555 1554 1552 1551 1550 1548 1546 1545 1543 1541 1539 1537 1534 1532 1529 1526 1524 1521 1518 1515 1513 1511 1509 1506 1503 1500 1497 1494 1492 1489 1487 1484 1482 1479 1477 1474 1472 1469 1466 1462 1460 1457 1454 1452 1449 1447 1444 1441 1439 1438 1436 1435 1434 1434 1433 1432 1431 1431 1431 1431 1431 1431 1430 1430 1430 1431 1430 1430
1561 1561 1561 1562 1562 1562 1562 1562 1562 1561 1561 1560 1559 1559 1558 1557 1556 1555 1554 1553 1552 1550 1549 1547 1546 1544 1542 1540 1538 1535 1533 1531 1528 1525 1522 1519 1516 1514 1512 1509 1506 1504 1501 1499 1497 1495 1492 1490 1488 1485 1483 1481 1478 1476 1473 1470 1467 1465 1462 1459 1457 1454 1452 1449 1447 1445 1443 1442 1440 1439 1439 1438 1437 1436 1436 1435 1435 1435 1435 1435 1435 1434 1435 1435 1435
1561 1561 1561 1562 1562 1561 1561 1561 1561 1561 1561 1560 1559 1559 1558 1557 1556 1555 1554 1553 1552 1550 1549 1548 1546 1544 1543 1541 1538 1536 1534 1532 1529 1527 1524 1521 1518 1515 1512 1510 1507 1505 1503 1501 1499 1497 1495 1493 1491 1489 1487 1485 1482 1480 1477 1475 1472 1470 1467 1465 1462 1460 1457 1455 1453 1451 1449 1447 1446 1445 1444 1443 1442 1442 1441 1441 1441 1440 1440 1440 1439 1439 1439 1439 1440
1560 1560 1561 1561 1561 1561 1561 1561 1561 1561 1560 1560 1559 1559 1558 1557 1556 1555 1554 1553 1552 1551 1549 1548 1546 1545 1543 1541 1539 1537 1535 1533 1531 1528 1526 1523 1520 1517 1514 1512 1510 1508 1505 1503 1501 1500 1498 1496 1494 1492 1490 1488 1486 1483 1481 1479 1477 1474 1472 1470 1467 1465 1463 1461 1458 1456 1454 1453 1451 1450 1450 1449 1448 1447 1446 1446 1445 1445 1445 1445 1444 1444 1444 1444 1445
1560 1560 1560 1560 1560 1560 1560 1560 1560 1560 1560 1559 1559 1558 1557 1557 1556 1555 1554 1553 1552 1551 1550 1548 1547 1545 1544 1542 1540 1538 1536 1534 1532 1529 1527 1524 1521 1519 1517 1514 1512 1510 1507 1505 1504 1502 1500 1498 1497 1495 1493 1491 1489 1487 1485 1482 1480 1478 1476 1474 1472 1470 1468 1466 1463 1461 1460 1458 1457 1456 1455 1454 1453 1452 1451 1450 1450 1449 1449 1449 1449 1449 1449 1449 1450
1559 1559 1559 1559 1559 1560 1559 1559 1559 1559 1559 1559 1558 1558 1557 1557 1556 1555 1554 1553 1552 1551 1550 1548 1547 1545 1544 1542 1540 1538 1536 1534 1532 1530 1527 1525 1523 1521 1519 1516 1514 1512 1510 1508 1505 1503 1502 1500 1498 1497 1495 1493 1492 1490 1488 1486 1484 1482 1480 1478 1476 1474 1472 1470 1468 1466 1464 1463 1462 1461 1459 1458 1457 1457 1456 1455 1454 1454 1454 1453 1453 1453 1453 1454 1454
1558 1558 1558 1558 1559 1559 1559 1559 1558 1558 1558 1558 1558 1557 1557 1556 1555 1555 1554 1553 1552 1551 1549 1548 1547 1545 1544 1542 1540 1539 1537 1535 1533 1531 1529 1526 1524 1522 1520 1518 1516 1514 1512 1510 1507 1505 1503 1502 1500 1499 1497 1496 1494 1492 1490 1488 1487 1485 1483 1481 1479 1477 1476 1474 1472 1470 1469 1467 1466 1465 1464 1463 1462 1461 1460 1459 1459 1458 1458 1457 1457 1457 1457 1457 1458
1557 1557 1557 1557 1558 1558 1557 1558 1557 1557 1557 1557 1557 1556 1556 1555 1555 1554 1553 1552 1551 1550 1549 1548 1547 1545 1544 1542 1541 1539 1537 1535 1534 1532 1530 1528 1526 1524 1522 1520 1518 1516 1514 1512 1509 1507 1505 1503 1502 1501 1499 1497 1496 1494 1493 1491 1489 1487 1486 1484 1482 1480 1479 1477 1476 1474 1473 1472 1471 1469 1468 1467 1466 1465 1464 1463 1463 1463 1462 1462 1461 1461 1461 1461 1462
1556 1556 1556 1556 1556 1556 1556 1556 1556 1556 1556 1556 1556 1555 1555 1555 1554 1553 1553 1552 1551 1550 1549 1548 1546 1545 1544 1542 1541 1539 1538 1536 1534 1532 1530 1529 1527 1525 1523 1521 1519 1517 1516 1514 1512 1509 1507 1505 1504 1503 1501 1499 1498 1496 1494 1493 1491 1489 1488 1486 1484 1483 1481 1480 1479 1478 1476 1475 1474 1473 1472 1471 1470 1469 1468 1467 1467 1466 1466 1466 1465 1465 1465 1465 1465
1555 1555 1555 1555 1555 1555 1555 1555 1555 1555 1555 1555 1555 1555 1554 1554 1553 1553 1552 1551 1550 1549 1548 1547 1546 1545 1543 1542 1541 1539 1538 1536 1535 1533 1531 1529 1527 1526 1524 1522 1520 1519 1517 1515 1513 1512 1510 1507 1506 1504 1503 1501 1500 1498 1496 1495 1493 1491 1489 1488 1486 1485 1483 1482 1481 1480 1479 1478 1477 1476 1475 1474 1473 1472 1472 1471 1471 1470 1470 1469 1469 1469 1469 1469 1469
1553 1554 1554 1554 1554 1554 1554 1554 1554 1554 1554 1554 1554 1554 1553 1553 1552 1552 1551 1550 1549 1549 1547 1546 1545 1544 1543 1542 1540 1539 1537 1536 1535 1533 1531 1530 1528 1526 1525 1523 1521 1520 1518 1516 1515 1513 1511 1510 1508 1506 1505 1503 1501 1500 1498 1496 1494 1493 1491 1489 1487 1486 1485 1484 1483 1481 1481 1480 1480 1479 1478 1477 1477 1476 1475 1474 1474 1473 1473 1473 1473 1472 1472 1472 1472
1552 1552 1553 1553 1553 1553 1553 1553 1553 1553 1553 1553 1553 1553 1552 1552 1551 1551 1550 1549 1549 1548 1547 1546 1545 1544 1542 1541 1540 1539 1537 1536 1534 1533 1531 1530 1528 1527 1525 1524 1522 1520 1519 1517 1516 1514 1513 1511 1509 1508 1506 1505 1503 1501 1499 1498 1496 1494 1492 1490 1488 1487 1486 1485 1484 1483 1483 1482 1482 1481 1480 1480 1479 1478 1478 1477 1477 1476 1476 1475 1475 1475 1475 1475 1475
1550 1551 1551 1551 1552 1552 1552 1552 1552 1552 1552 1552 1552 1551 1551 1551 1550 1550 1549 1548 1548 1547 1546 1545 1544 1543 1542 1541 1539 1538 1537 1535 1534 1533 1531 1530 1528 1527 1525 1524 1522 1521 1519 1518 1516 1515 1513 1512 1510 1509 1507 1506 1504 1502 1501 1499 1497 1495 1493 1491 1489 1488 1487 1487 1486 1485 1485 1484 1483 1483 1482 1482 1481 1480 1480 1479 1479 1478 1478 1478 1478 1478 1478 1478 1478
1549 1549 1550 1550 1550 1550 1550 1550 1550 1550 1550 1550 1550 1550 1550 1549 1549 1548 1548 1547 1547 1546 1545 1544 1543 1542 1541 1540 1539 1538 1536 1535 1534 1532 1531 1530 1528 1527 1525 1524 1523 1521 1520 1518 1517 1515 1514 1512 1511 1509 1508 1506 1505 1503 1502 1500 1498 1496 1494 1492 1491 1490 1489 1488 1487 1487 1486 1486 1485 1484 1484 1483 1482 1481 1481 1481 1480 1480 1480 1480 1479 1479 1479 1479 1480
1547 1548 1548 1548 1549 1549 1549 1549 1549 1549 1549 1549 1549 1549 1548 1548 1547 1547 1546 1546 1545 1545 1544 1543 1542 1541 1540 1539 1538 1537 1535 1534 1533 1532 1531 1529 1528 1527 1525 1524 1523 1521 1520 1519 1517 1516 1514 1513 1511 1510 1508 1507 1505 1504 1502 1500 1499 1497 1495 1493 1492 1491 1490 1489 1489 1488 1487 1487 1486 1485 1484 1483 1482 1482 1481 1481 1481 1481 1481 1481 1481 1481 1480 1480 1481
1546 1546 1546 1547 1547 1547 1547 1547 1547 1547 1547 1547 1547 1547 1546 1546 1546 1545 1545 1544 1544 1543 1542 1542 1541 1540 1539 1538 1537 1536 1535 1534 1532 1531 1530 1529 1528 1526 1525 1524 1522 1521 1520 1519 1517 1516 1515 1513 1512 1510 1509 1507 1506 1504 1503 1501 1499 1498 1496 1495 1493 1492 1491 1491 1490 1489 1489 1488 1487 1486 1485 1484 1483 1482 1481 1481 1481 1481 1482 1482 1482 1482 1482 1482 1482
1544 1544 1544 1545 1545 1545 1545 1545 1545 1545 1545 1545 1545 1545 1545 1544 1544 1544 1543 1543 1542 1541 1541 1540 1539 1539 1538 1537 1536 1535 1534 1533 1532 1531 1530 1528 1527 1526 1525 1523 1522 1521 1520 1518 1517 1516 1515 1513 1512 1511 1509 1508 1506 1505 1503 1502 1500 1499 1497 1496 1494 1493 1492 1492 1491 1490 1489 1489 1488 1487 1486 1485 1484 1483 1482 1482 1482 1482 1482 1482 1482 1483 1483 1483 1483
1542 1542 1542 1543 1543 1543 1543 1543 1543 1543 1543 1543 1543 1543 1543 1542 1542 1542 1541 1541 1540 1540 1539 1538 1538 1537 1536 1535 1535 1534 1533 1532 1531 1530 1529 1528 1527 1525 1524 1523 1522 1520 1519 1518 1517 1516 1515 1514 1512 1511 1510 1508 1507 1505 1504 1502 1501 1500 1498 1497 1495 1494 1493 1493 1492 1491 1490 1490 1489 1488 1487 1486 1485 1484 1484 1483 1483 1483 1483 1483 1483 1484 1484 1483 1483